DW7955 Weather Reports


Display with metric or nautical units.
time (UTC)temp
F
wind
direction
speed
MPH
gust
MPH
rain 1hr
in
rain 24hr
in
rain mn
in
humidity
%
barometer
mb
20260902194543 88 167 10.0 14.0 0.00 0.00 0.00 21 1003.8
20260902193045 89 163 7.0 13.0 0.00 0.00 0.00 21 1004.1
20260902191540 89 138 2.0 9.0 0.00 0.00 0.00 20 1004.3
20260902190038 88 198 7.0 16.0 0.00 0.00 0.00 21 1004.7
20260902184535 88 300 5.0 9.0 0.00 0.00 0.00 20 1004.8
20260902183038 88 202 5.0 9.0 0.00 0.00 0.00 21 1005.0
20260902181531 87 211 5.0 10.0 0.00 0.00 0.00 21 1005.3
20260902180029 87 109 4.0 8.0 0.00 0.00 0.00 21 1005.5
20260902174526 86 255 3.0 11.0 0.00 0.00 0.00 23 1005.9
20260902173025 85 256 2.0 12.0 0.00 0.00 0.00 24 1006.2
20260902171523 85 244 8.0 17.0 0.00 0.00 0.00 23 1006.5
20260902170022 85 194 7.0 14.0 0.00 0.00 0.00 23 1006.8
20260902164518 84 307 2.0 11.0 0.00 0.00 0.00 24 1006.9
20260902163016 84 300 7.0 15.0 0.00 0.00 0.00 24 1007.0
20260902161512 83 320 3.0 15.0 0.00 0.00 0.00 25 1007.3
20260902160013 82 293 5.0 18.0 0.00 0.00 0.00 25 1007.5
20260902154507 82 236 3.0 8.0 0.00 0.00 0.00 26 1007.6
20260902153014 80 223 3.0 14.0 0.00 0.00 0.00 27 1007.6
20260902151601 80 331 2.0 11.0 0.00 0.00 0.00 28 1007.8
20260902150057 78 285 2.0 8.0 0.00 0.00 0.00 30 1007.9
20260902144553 76 240 0.0 3.0 0.00 0.00 0.00 35 1008.1
20260902143048 74 246 3.0 7.0 0.00 0.00 0.00 36 1008.2
20260902141544 70 235 1.0 5.0 0.00 0.00 0.00 43 1008.0
20260902140041 68 232 0.0 3.0 0.00 0.00 0.00 47 1008.2
20260902134549 67 196 1.0 4.0 0.00 0.00 0.00 47 1008.1
20260902133039 66 319 0.0 2.0 0.00 0.00 0.00 49 1008.0
20260902131543 63 319 0.0 3.0 0.00 0.00 0.00 52 1007.9
20260902130040 62 272 0.0 1.0 0.00 0.00 0.00 53 1007.7
20260902124533 62 271 0.0 2.0 0.00 0.00 0.00 53 1007.5
20260902123034 62 271 0.0 2.0 0.00 0.00 0.00 53 1007.3
20260902121530 63 277 0.0 2.0 0.00 0.00 0.00 53 1007.2
20260902120028 63 230 0.0 3.0 0.00 0.00 0.00 52 1007.1
20260902114529 63 327 0.0 4.0 0.00 0.00 0.00 53 1006.9
20260902113025 64 277 0.0 2.0 0.00 0.00 0.00 53 1006.8
20260902111523 64 305 1.0 8.0 0.00 0.00 0.00 53 1006.6
20260902110036 62 302 0.0 3.0 0.00 0.00 0.00 59 1006.5
20260902104521 61 283 0.0 2.0 0.00 0.00 0.00 62 1006.5
20260902103020 61 287 0.0 2.0 0.00 0.00 0.00 63 1006.5
20260902101520 62 235 0.0 0.0 0.00 0.00 0.00 63 1006.5
20260902100018 62 235 0.0 2.0 0.00 0.00 0.00 64 1006.4
20260902094522 62 233 0.0 3.0 0.00 0.00 0.00 67 1006.5
20260902093028 61 194 0.0 1.0 0.00 0.00 0.00 73 1006.3
20260902091514 61 194 0.0 0.0 0.00 0.00 0.00 72 1006.4
20260902090011 62 194 0.0 3.0 0.00 0.00 0.00 71 1006.5
20260902084518 62 194 0.0 0.0 0.00 0.00 0.00 72 1006.4
20260902083008 63 194 0.0 0.0 0.00 0.00 0.00 72 1006.4
20260902081506 64 194 0.0 0.0 0.00 0.00 0.00 70 1006.4
20260902080004 64 194 0.0 2.0 0.00 0.00 0.00 69 1006.7
20260902074503 65 346 0.0 0.0 0.00 0.00 0.00 69 1006.6
20260902073103 66 346 0.0 0.0 0.00 0.00 0.00 67 1006.6
20260902071557 67 346 0.0 2.0 0.00 0.00 0.00 65 1006.6
20260902070054 68 346 0.0 4.0 0.00 0.00 0.00 63 1006.4
20260902064554 68 347 4.0 9.0 0.00 0.00 0.00 63 1006.2
20260902063050 68 1 4.0 8.0 0.00 0.00 0.00 61 1006.2
20260902061559 69 356 3.0 5.0 0.00 0.00 0.00 60 1006.1
20260902060055 69 24 5.0 6.0 0.00 0.00 0.00 59 1006.2
20260902054605 70 33 2.0 7.0 0.00 0.00 0.00 59 1006.5
20260902053059 70 28 5.0 9.0 0.00 0.00 0.00 58 1006.2
20260902051543 71 351 1.0 3.0 0.00 0.00 0.00 55 1006.0
20260902050045 73 141 0.0 2.0 0.00 0.00 0.00 53 1006.0
20260902044543 73 139 2.0 5.0 0.00 0.00 0.00 52 1005.9
20260902043045 74 175 1.0 4.0 0.00 0.00 0.00 51 1005.9
20260902041546 75 132 2.0 4.0 0.00 0.00 0.00 49 1006.1
20260902040048 76 135 4.0 8.0 0.00 0.00 0.00 48 1006.3
20260902034541 75 119 7.0 12.0 0.00 0.00 0.00 49 1005.9
20260902033040 75 67 4.0 12.0 0.00 0.00 0.00 50 1006.0
20260902031544 76 126 3.0 8.0 0.00 0.00 0.00 46 1006.4
20260902030039 77 140 0.0 5.0 0.00 0.00 0.00 45 1006.4
20260902024541 77 70 4.0 11.0 0.00 0.00 0.00 46 1005.8
20260902023044 77 80 6.0 13.0 0.00 0.00 0.00 46 1005.5
20260902021538 77 59 7.0 12.0 0.00 0.00 0.00 48 1005.1
20260902020039 77 117 5.0 14.0 0.00 0.00 0.00 48 1004.8
20260902014538 78 133 6.0 18.0 0.00 0.00 0.00 46 1004.8
20260902013043 79 97 8.0 18.0 0.00 0.00 0.00 42 1004.8
20260902011537 80 84 4.0 11.0 0.00 0.00 0.00 38 1004.8
20260902010036 80 83 5.0 11.0 0.00 0.00 0.00 37 1004.6
20260902004536 81 128 6.0 10.0 0.00 0.00 0.00 38 1004.6
20260902003039 81 114 5.0 12.0 0.00 0.00 0.00 38 1004.7
20260902001552 81 142 8.0 16.0 0.00 0.00 0.00 38 1004.7
20260902000038 82 122 11.0 17.0 0.00 0.00 0.00 37 1004.6
20260901234534 84 111 9.0 19.0 0.00 0.00 0.00 36 1004.6
20260901233035 86 106 10.0 18.0 0.00 0.00 0.00 29 1004.5
20260901231531 86 107 10.0 24.0 0.00 0.00 0.00 30 1004.4
20260901230031 87 82 14.0 18.0 0.00 0.00 0.00 31 1004.7
20260901224529 87 129 4.0 11.0 0.00 0.00 0.00 30 1004.9
20260901223027 86 107 6.0 12.0 0.00 0.00 0.00 30 1005.0
20260901221525 87 102 6.0 14.0 0.00 0.00 0.00 29 1005.2
20260901220023 86 126 9.0 14.0 0.00 0.00 0.00 30 1005.6
20260901214523 86 151 4.0 12.0 0.00 0.00 0.00 29 1005.5
20260901213020 85 198 6.0 16.0 0.00 0.00 0.00 29 1005.7
20260901211519 86 145 5.0 11.0 0.00 0.00 0.00 29 1005.8
20260901210017 85 141 7.0 12.0 0.00 0.00 0.00 29 1005.9
20260901204516 85 132 6.0 11.0 0.00 0.00 0.00 30 1006.0
20260901203015 84 178 5.0 15.0 0.00 0.00 0.00 31 1006.4
20260901201510 84 131 8.0 15.0 0.00 0.00 0.00 32 1006.5
20260901200008 83 131 4.0 14.0 0.00 0.00 0.00 36 1006.8